Location: Augustenthal
(51.7167°N, 10.2833°E)
Time: 08:25:47
(UTC+00:00)

Cosmos 372 Rocket - Pass Details

Date: 18 May 2021
Orbit: 738 x 768 km, 74.1° (Epoch: 20 June)

Event Time Altitude Azimuth Distance (km) Brightness Sun altitude
Exits shadow 21:36:38 10° 207° (SSW) 2,257 6.1 -15.3°
Reaches altitude 10° 21:36:41 10° 207° (SSW) 2,242 6.1 -15.3°
Maximum altitude 21:41:46 81° 295° (WNW) 754 4.0 -15.7°
Drops below altitude 10° 21:46:54 10° 24° (NNE) 2,263 7.1 -16.0°
Sets 21:49:16 0° 25° (NNE) 3,193 7.9 -16.1°
